Location: Stilling
(56.0622°N, 9.9882°E)
Time: 13:02:49
(UTC+00:00)

Cosmos 2112 Rocket - Pass Details

Date: 13 July 2020
Orbit: 756 x 787 km, 74.0° (Epoch: 06 August)

Event Time Altitude Azimuth Distance (km) Brightness Sun altitude
Rises 21:22:52 0° 210° (SSW) 3,271 6.9 -8.0°
Reaches altitude 10° 21:25:15 10° 211° (SSW) 2,347 6.2 -8.2°
Maximum altitude 21:30:37 81° 299° (WNW) 805 4.2 -8.5°
Drops below altitude 10° 21:36:00 10° 27° (NNE) 2,358 7.1 -8.9°
Sets 21:38:24 0° 29° (NNE) 3,287 7.8 -9.0°
